Location: Ammerl�gen
(47.2167°N, 9.6000°E)
Time: 16:27:13
(UTC+00:00)

NOAA 19 - Pass Details

Date: 04 December 2021
Orbit: 841 x 860 km, 99.2° (Epoch: 17 January)

Event Time Altitude Azimuth Distance (km) Brightness Sun altitude
Rises 18:33:21 0° 183° (S) 3,383 8.4 -29.8°
Reaches altitude 10° 18:35:49 10° 190° (S) 2,453 7.7 -30.2°
Maximum altitude 18:40:59 43° 261° (W) 1,164 6.2 -31.1°
Drops below altitude 10° 18:46:12 10° 333° (NNW) 2,477 7.9 -32.0°
Sets 18:48:42 0° 340° (NNW) 3,419 8.6 -32.4°
